Location: Unspecified
(0.0000°N, 0.0000°E)
Time: 06:19:20
(UTC+00:00)

Envisat - Pass Details

Date: 19 October 2019
Orbit: 764 x 766 km, 98.1° (Epoch: 14 October)

Event Time Altitude Azimuth Distance (km) Brightness Sun altitude
Rises 19:33:54 0° 201° (SSW) 3,229 6.7 -26.8°
Reaches altitude 10° 19:37:10 10° 223° (SW) 2,300 6.1 -27.6°
Maximum altitude 19:40:01 15° 257° (WSW) 1,961 6.0 -28.3°
Drops below altitude 10° 19:42:51 10° 292° (WNW) 2,294 6.1 -29.0°
Sets 19:46:07 0° 315° (NW) 3,216 6.7 -29.8°
